Aeroporto :
LOGIN :

Iscrizione | Disclaimer

   EN    FR    IT 

 










Sommario :    VFR   VFR Marginale   IFR   IFR Intensivo   IFR Molto Intensivo
Visibilità : 
Base nubi : 
>= 8 km
>= 3000ft
5 / 8 km
1000 / 3000 ft
1500m / 5 km
500 / 1000 ft
800 / 1500m
200 / 500 ft
< 800m
< 200 ft
Simboli :   Temporali  Nebbia  Neve Forte  Precipitazioni Forti  Vento > 20 kt
SIGMETs :   Varie  Temporali  Ghiacco  Turbolenza  Onda orograficha  Ceneri Vulcaniche






- Altitudine del aeroporto : 313 ft


LFQA - Reims-Prunay

ULTIMO METAR :
  • 261200Z AUTO 22007KT 190V260 9999 BKN022 OVC027 20/16 Q1016

METARs OBSOLETI :
  • 261130Z AUTO 22010KT 200V270 9999 BKN022 OVC027 20/15 Q1016
  • 261100Z AUTO 23009KT 200V260 9999 BKN018 OVC023 19/16 Q1016
  • 261030Z AUTO 21008KT 170V240 9999 BKN016 BKN022 19/16 Q1016
  • 261000Z AUTO 21009KT 9999 SCT009 OVC017 18/16 Q1016
  • 260930Z AUTO 20008KT 9999 OVC008 18/16 Q1016

TAF N/A



MetMap, La meteo Aeronautica in un colpo d'occhio ! - Copyright ORBIFLY Dicembre 2007 - Disclaimer

ORBIFLY MET'MAP TEAM :

Programmazione e sviluppo : Alexandra Zaïnal
Concezione : Baudouin d'Aumeries
Aiuto per la programmazione : Marc-Olivier Méhu
Supporto tecnico e logistico : Manuel Goepfert
Aiuto per la traduzione : Arnaldo La Scala

Contatto : metmap@orbifly.com




FONTI E CREDITI :

   NOAA